Zurück zum Katalog

STARLINK-31588

AktivKommunikationVLEO
NORAD 59335·PAYLOAD·🇺🇸 United States

Gestartet Mar 25, 2024 von Cape Canaveral Space Force Station

Loading…

Nächste Überflüge (nächste 24 Stunden)

TLE

AktuellSource: CelesTrak SupGP

Epoche: Sep 14, 2026, 22:34 UTC

1 59335C 24057R   26257.94076389 -.00016391  00000+0 -59363-3 0  2578
2 59335  42.9998 197.9448 0001076 258.7460 203.1230 15.27590988    12

Verfolge STARLINK-31588 in Echtzeit mit AllMySat

Download on the App Store